Back to catalog

CZ-6A DEB

AlivePO
NORAD 54983·DEBRIS·🇨🇳 China

Launched Nov 11, 2022 from Taiyuan Satellite Launch Center

Loading…

Next Passes (next 24 hours)

TLE

FreshSource: Space-Track

Epoch: Sep 14, 2026, 03:19 UTC

1 54983U 22151TY  26257.13847795  .00000232  00000-0  27011-3 0  9997
2 54983  98.8999 160.4202 0263209   8.2631 352.2725 13.63974411189856

Track CZ-6A DEB in real time with AllMySat

Download on the App Store